Location: Battersea Observatory
(44.4318°N, 76.3841°W)
Time: 21:31:58
(UTC-04:00)

Tiros 1 despin weight - Pass Details

Date: 26 January 2022
Orbit: 592 x 639 km, 48.2° (Epoch: 25 May)

Event Time Altitude Azimuth Distance (km) Brightness Sun altitude
Rises 19:46:57 0° 284° (WNW) 2,903 ? -28.6°
Reaches altitude 10° 19:49:18 10° 289° (WNW) 2,003 ? -29.0°
Enters shadow 19:52:19 37° 310° (NW) 978 ? -29.5°
Maximum altitude 19:53:50 56° 8° (N) 754 - -29.8°
Drops below altitude 10° 19:58:26 10° 87° (E) 2,025 - -30.6°
Sets 20:00:49 0° 92° (E) 2,937 - -31.0°
